Weather in Chop

Ukraine / Zakarpattia District     48˚25′52″N   22˚12′44″E
temp.,
°C
wind,
m/s
gust,
m/s
humid.,
%
clouds,
%
prec.,
mm/h
press.,
hPa
HPBL,
m
3 december, thu
thu323:00−1˚ene115068 0.0 102121
02:00−1˚ene124881 0.0 102021
05:00−2˚e125021 0.0 101821
08:00−1˚e115355 0.0 101723
11:00+2˚ne114995 0.0 101697
14:00+4˚se025095 0.0 1014134
17:00+1˚n125943 0.0 101322
20:00+1˚e235563 0.0 101323
4 december, fri
fri423:00+1˚sse115461 0.0 101222
02:00+2˚ene225170 0.0 101123
05:00+1˚e115595 0.0 101022
08:00+1˚e126185 0.0 101022
11:00+5˚se3135425 0.0 1010532
14:00+8˚sse3126033 0.0 1009619
17:00+4˚ese34680 0.0 101068
20:00+4˚se34790 0.0 101162
5 december, sat
sat523:00+4˚ese35791 0.0 101195
02:00+4˚se35820 0.0 101294
05:00+3˚se35841 0.0 101176
08:00+4˚ese35849 0.0 101261
11:00+8˚se4147356 0.0 1012513
14:00+11˚se5116331 0.0 1012570
17:00+9˚se6147238 0.0 1012348
20:00+9˚se6177361 0.0 1013481
6 december, sun
sun623:00+9˚se61673100 0.0 1014493
02:00+8˚se61575100 0.0 1014434
05:00+7˚se51478100 0.0 1013357
08:00+6˚ese3881100 0.0 1013192
11:00+9˚ese41269100 0.0 1012590
14:00+11˚ese61462100 0.0 1010866
17:00+9˚ese5147095 0.0 1008322
20:00+9˚se7196694 0.0 1009818
7 december, mon
mon723:00+8˚se7196918 0.0 1009772
02:00+10˚ese9206252 0.0 1008817
05:00+9˚se51773100 0.8 1008800
08:00+8˚se81689100 7.0 1009710
11:00+8˚se51194100 6.6 1010560
14:00+8˚se61094100 10.3 1010402
17:00+7˚sse2498100 4.4 1012195
20:00+7˚sw1191100 6.4 101364